Home   Weather   Shawinigan   Past weeks

Flag for Canada Past Weather in Shawinigan, Quebec, Canada — Yesterday and Last 2 Weeks

Now
65 °F

Mild.


Feels Like: 65 °F
Forecast: N/A
Wind: 5 mph from Northeast

Location: Trois Rivieres

Current Time: Oct 1, 2016 at 4:51:41 PM

Latest Report: Oct 1, 2016 at 4:00 PM


Visibility: N/A

Pressure: 30.26 "Hg

Humidity: 57%

Dew Point: 50 °F

Location of ShawiniganLocation

Past Weather in Shawinigan — Graph

°F

Shawinigan Temperature Yesterday

Maximum temperature yesterday: 64 °F (at 4:00 PM)
Minimum temperature yesterday: 44 °F (at 6:00 AM)
Average temperature yesterday: 53 °F

High & Low Weather Summary for the Past Weeks

 TemperatureHumidityPressure
High75 °F (Sep 18, 6:00 PM)100% (Sep 17, 11:00 PM)30.59 "Hg (Sep 17, 11:00 PM)
Low43 °F (Sep 26, 7:00 AM)33% (Sep 24, 3:00 PM)29.78 "Hg (Sep 18, 2:00 AM)
Average58 °F77%30.13 "Hg
* Reported Sep 16 3:00 PM — Oct 1 3:00 PM, Shawinigan, Weather by CustomWeather, © 2016

Note: Actual official high and low records may vary slightly from our data, if they occured in-between our weather recording intervals... More about our weather records

Advertising

Shawinigan Weather History for the Previous 24 Hours

Scroll right to see more
 ConditionsComfort  
Time TempWeatherWind HumidityBarometerVisibility
3:00 PM
Sat, Oct 1
65 °FMild.6 mph55%30.27 "HgN/A
2:00 PM64 °FMild.7 mph53%30.29 "HgN/A
1:00 PM63 °FMild.8 mph55%30.31 "HgN/A
12:00 PM61 °FRefreshingly cool.7 mph59%30.34 "HgN/A
11:00 AM59 °FCool.12 mph67%30.34 "HgN/A
10:00 AM57 °FCool.10 mph75%30.35 "HgN/A
9:00 AM54 °FCool.5 mph82%30.36 "HgN/A
8:00 AM52 °FCool.6 mph81%30.36 "HgN/A
7:00 AM51 °FCool.5 mph83%30.36 "HgN/A
6:00 AM51 °FCool.6 mph83%30.37 "HgN/A
5:00 AM51 °FCool.6 mph84%30.37 "HgN/A
4:00 AM52 °FCool.5 mph83%30.37 "HgN/A
3:00 AM52 °FCool.5 mph79%30.37 "HgN/A
2:00 AM52 °FCool.7 mph79%30.37 "HgN/A
1:00 AM53 °FCool.5 mph76%30.39 "HgN/A
12:00 AM53 °FCool.5 mph76%30.40 "HgN/A
11:00 PM
Fri, Sep 30
54 °FCool.6 mph73%30.40 "HgN/A
10:00 PM56 °FCool.6 mph68%30.41 "HgN/A
9:00 PM56 °FCool.5 mph64%30.41 "HgN/A
8:00 PM58 °FCool.5 mph62%30.41 "HgN/A
7:00 PM60 °FRefreshingly cool.5 mph59%30.41 "HgN/A
6:00 PM61 °FRefreshingly cool.5 mph56%30.42 "HgN/A
5:00 PM63 °FMild.6 mph53%30.41 "HgN/A
4:00 PM64 °FMild.7 mph49%30.42 "HgN/A
Weather by CustomWeather, © 2016

See weather overviewHow to use our weather pages